Tracking 30703 objects as of 14-Jun-2025
HD Live streaming from Space Station
objects crossing your sky now

STARLINK-6091

Track STARLINK-6091 now!
10-day predictions
STARLINK-6091 is classified as:


NORAD ID: 56119
Int'l Code: 2023-046AC
Perigee: 564.9 km
Apogee: 567.5 km
Inclination: 43.0 °
Period: 95.8 minutes
Semi major axis: 6937 km
RCS: Unknown
Launch date: March 29, 2023
Source: United States (US)
Launch site: AIR FORCE EASTERN TEST RANGE (AFETR)
Your satellite tracking list
Your tracking list is empty




NASA's NSSDC Master Catalog

Two Line Element Set (TLE):
1 56119U 23046AC  25165.02575468  .00000596  00000-0  59219-4 0  9993
2 56119  43.0022 166.1893 0001849 292.4964  67.5683 15.02536828122333
Source of the keplerian elements: AFSPC